DIESL EDLD-EDLV

Flight info

Callsign DIESL
Flight time 0h 13m
Altitude 2000
Route 513918N0061100E
Aircraft DA42/L-SBDFGRY/S

Departure

Time 2026-04-26 11:37
Airport Dinslaken-Schwarze Heide Airfield (EDLD)

Arrival

Time 2026-04-26 11:50
Airport Weeze (Niederrhein) Airport (EDLV)
Time Latitude Longitude Altitude Speed Heading
2026-04-26 11:22 51.61487 6.86161 218 ft 0 kts 95°
2026-04-26 11:29 51.61488 6.86166 221 ft 3 kts 49°
2026-04-26 11:29 51.61529 6.86210 218 ft 11 kts 39°
2026-04-26 11:30 51.61565 6.86315 217 ft 12 kts 85°
2026-04-26 11:30 51.61571 6.86412 216 ft 15 kts 85°
2026-04-26 11:30 51.61582 6.86656 217 ft 17 kts 86°
2026-04-26 11:30 51.61592 6.86844 218 ft 17 kts 85°
2026-04-26 11:31 51.61601 6.87028 217 ft 15 kts 84°
2026-04-26 11:31 51.61609 6.87180 218 ft 9 kts 71°
2026-04-26 11:31 51.61617 6.87199 218 ft 0 kts 27°
2026-04-26 11:35 51.61627 6.87201 220 ft 6 kts 356°
2026-04-26 11:35 51.61656 6.87155 219 ft 2 kts 265°
2026-04-26 11:35 51.61656 6.87154 219 ft 0 kts 265°
2026-04-26 11:36 51.61647 6.86968 220 ft 49 kts 264°
2026-04-26 11:36 51.61606 6.86135 276 ft 87 kts 270°
2026-04-26 11:36 51.61557 6.85158 638 ft 87 kts 267°
2026-04-26 11:37 51.61503 6.84171 1012 ft 90 kts 267°
2026-04-26 11:37 51.61509 6.83131 1439 ft 98 kts 290°
2026-04-26 11:37 51.61815 6.82160 1794 ft 98 kts 290°
2026-04-26 11:37 51.61919 6.81019 2033 ft 114 kts 277°
2026-04-26 11:38 51.61998 6.79549 2020 ft 145 kts 276°
2026-04-26 11:38 51.62094 6.77845 1998 ft 159 kts 277°
2026-04-26 11:38 51.62200 6.76032 1992 ft 166 kts 277°
2026-04-26 11:38 51.62315 6.74176 1990 ft 168 kts 277°
2026-04-26 11:39 51.62429 6.72286 1993 ft 172 kts 277°
2026-04-26 11:39 51.62546 6.70347 1993 ft 175 kts 277°
2026-04-26 11:39 51.62662 6.68410 1996 ft 173 kts 277°
2026-04-26 11:39 51.62775 6.66480 1996 ft 174 kts 277°
2026-04-26 11:40 51.62898 6.64535 2002 ft 175 kts 278°
2026-04-26 11:40 51.63009 6.62565 2013 ft 180 kts 276°
2026-04-26 11:40 51.63117 6.60549 1998 ft 179 kts 277°
2026-04-26 11:40 51.63293 6.58573 1998 ft 177 kts 281°
2026-04-26 11:41 51.63520 6.56631 1992 ft 178 kts 282°
2026-04-26 11:42 51.65249 6.42706 2002 ft 181 kts 283°
2026-04-26 11:43 51.65491 6.40698 1993 ft 182 kts 283°
2026-04-26 11:43 51.65735 6.38704 1992 ft 177 kts 283°
2026-04-26 11:43 51.65977 6.36776 2001 ft 175 kts 284°
2026-04-26 11:43 51.66224 6.34853 1991 ft 174 kts 282°
2026-04-26 11:44 51.66381 6.33565 1991 ft 173 kts 282°
2026-04-26 11:44 51.66622 6.31627 1979 ft 180 kts 283°
2026-04-26 11:44 51.66854 6.29673 1994 ft 176 kts 282°
2026-04-26 11:44 51.67096 6.27720 1986 ft 178 kts 283°
2026-04-26 11:45 51.67307 6.25792 2004 ft 174 kts 278°
2026-04-26 11:45 51.67209 6.23871 2004 ft 171 kts 256°
2026-04-26 11:45 51.66857 6.22022 1853 ft 173 kts 253°
2026-04-26 11:45 51.66393 6.20237 1717 ft 171 kts 241°
2026-04-26 11:46 51.65770 6.18599 1593 ft 169 kts 238°
2026-04-26 11:46 51.65098 6.17059 1464 ft 166 kts 232°
2026-04-26 11:46 51.64367 6.15595 1323 ft 169 kts 227°
2026-04-26 11:46 51.63570 6.14252 1303 ft 165 kts 227°
2026-04-26 11:47 51.62796 6.12921 1299 ft 159 kts 226°
2026-04-26 11:47 51.62164 6.11554 1290 ft 148 kts 251°
2026-04-26 11:47 51.62056 6.10021 1275 ft 130 kts 271°
2026-04-26 11:47 51.62037 6.08541 1104 ft 128 kts 265°
2026-04-26 11:48 51.61604 6.07463 965 ft 118 kts 213°
2026-04-26 11:48 51.60869 6.07121 828 ft 109 kts 170°
2026-04-26 11:48 51.60314 6.07810 702 ft 101 kts 109°
2026-04-26 11:48 51.60267 6.08920 570 ft 97 kts 81°
2026-04-26 11:49 51.60307 6.09984 442 ft 94 kts 84°
2026-04-26 11:49 51.60308 6.11034 350 ft 94 kts 88°
2026-04-26 11:49 51.60288 6.12085 213 ft 93 kts 88°
2026-04-26 11:49 51.60271 6.13108 120 ft 87 kts 89°
2026-04-26 11:50 51.60256 6.13929 112 ft 58 kts 92°
2026-04-26 11:50 51.60244 6.14448 105 ft 37 kts 93°
2026-04-26 11:50 51.60235 6.14786 105 ft 24 kts 92°
2026-04-26 11:50 51.60228 6.15010 108 ft 17 kts 92°
2026-04-26 11:51 51.60225 6.15195 111 ft 16 kts 88°
2026-04-26 11:51 51.60221 6.15381 112 ft 17 kts 95°
2026-04-26 11:51 51.60150 6.15465 113 ft 14 kts 181°
2026-04-26 11:51 51.60050 6.15452 112 ft 15 kts 206°
2026-04-26 11:52 51.60034 6.15291 111 ft 16 kts 270°
2026-04-26 11:52 51.60038 6.15101 108 ft 18 kts 273°
2026-04-26 11:52 51.60042 6.14903 107 ft 17 kts 271°
2026-04-26 11:52 51.60047 6.14700 104 ft 18 kts 274°
2026-04-26 11:53 51.60011 6.14588 104 ft 10 kts 171°
2026-04-26 11:53 51.59999 6.14670 104 ft 2 kts 92°
2026-04-26 11:53 51.59999 6.14671 104 ft 0 kts 92°